| time (UTC) | temp F | wind direction | speed knots | gust knots | rain 1hr in | rain 24hr in | rain mn in | humidity % | barometer mb |
| 20260508030004 | 46 | 289 | 0.9 | 3.5 | 0.00 | 0.04 | 0.00 | 92 | 1009.1 |
| 20260508025403 | 46 | 323 | 0.9 | 3.5 | 0.00 | 0.04 | 0.00 | 91 | 1008.9 |
| 20260508024504 | 46 | 333 | 0.9 | 2.6 | 0.00 | 0.04 | 0.00 | 92 | 1008.8 |
| 20260508023603 | 46 | 338 | 0.9 | 2.6 | 0.00 | 0.04 | 0.00 | 92 | 1008.6 |
| 20260508022703 | 47 | 253 | 0.0 | 0.9 | 0.00 | 0.04 | 0.00 | 93 | 1008.9 |
| 20260508021824 | 46 | 231 | 0.9 | 2.6 | 0.00 | 0.04 | 0.00 | 93 | 1008.8 |
| 20260508020903 | 46 | 227 | 0.9 | 2.6 | 0.00 | 0.04 | 0.00 | 93 | 1008.9 |
| 20260508020004 | 47 | 212 | 0.9 | 1.7 | 0.00 | 0.04 | 0.00 | 93 | 1008.6 |
| 20260508015403 | 47 | 228 | 0.9 | 3.5 | 0.00 | 0.04 | 0.00 | 93 | 1008.7 |
| 20260508014504 | 47 | 231 | 0.9 | 3.5 | 0.00 | 0.04 | 0.00 | 93 | 1008.6 |
| 20260508013604 | 47 | 244 | 0.0 | 2.6 | 0.00 | 0.04 | 0.00 | 93 | 1008.8 |
| 20260508012704 | 47 | 240 | 0.9 | 3.5 | 0.00 | 0.04 | 0.00 | 93 | 1008.7 |
| 20260508011803 | 47 | 232 | 1.7 | 5.2 | 0.00 | 0.04 | 0.00 | 93 | 1008.5 |
| 20260508010903 | 47 | 220 | 2.6 | 7.0 | 0.00 | 0.04 | 0.00 | 93 | 1008.5 |
| 20260508010003 | 47 | 218 | 2.6 | 6.1 | 0.00 | 0.04 | 0.00 | 94 | 1008.5 |
| 20260508005424 | 47 | 224 | 2.6 | 6.1 | 0.00 | 0.04 | 0.00 | 94 | 1008.4 |
| 20260508004503 | 47 | 215 | 2.6 | 6.1 | 0.00 | 0.04 | 0.00 | 94 | 1008.3 |
| 20260508003605 | 47 | 229 | 2.6 | 5.2 | 0.00 | 0.04 | 0.00 | 94 | 1008.3 |
| 20260508002703 | 47 | 219 | 3.5 | 6.1 | 0.00 | 0.04 | 0.00 | 94 | 1008.3 |
| 20260508001804 | 47 | 220 | 3.5 | 7.0 | 0.00 | 0.04 | 0.00 | 94 | 1008.4 |
| 20260508000904 | 47 | 219 | 2.6 | 6.1 | 0.00 | 0.04 | 0.00 | 94 | 1008.4 |
| 20260508000004 | 47 | 207 | 1.7 | 2.6 | 0.00 | 0.04 | 0.00 | 93 | 1008.4 |
| 20260507235426 | 47 | 202 | 2.6 | 2.6 | 0.00 | 0.04 | 0.00 | 93 | 1008.3 |
| 20260507234505 | 47 | 199 | 2.6 | 3.5 | 0.00 | 0.04 | 0.00 | 93 | 1008.3 |
| 20260507233603 | 47 | 203 | 3.5 | 6.1 | 0.00 | 0.04 | 0.00 | 93 | 1008.3 |
| 20260507232705 | 47 | 229 | 4.3 | 7.0 | 0.01 | 0.04 | 0.00 | 94 | 1008.2 |
| 20260507231803 | 47 | 222 | 4.3 | 8.7 | 0.01 | 0.04 | 0.00 | 93 | 1008.2 |
| 20260507230904 | 47 | 205 | 4.3 | 7.8 | 0.03 | 0.04 | 0.00 | 92 | 1008.4 |
| 20260507230004 | 47 | 200 | 4.3 | 6.1 | 0.04 | 0.04 | 0.00 | 92 | 1008.2 |
| 20260507225425 | 47 | 200 | 3.5 | 6.1 | 0.04 | 0.04 | 0.04 | 92 | 1008.1 |
| 20260507224504 | 47 | 204 | 4.3 | 7.0 | 0.04 | 0.04 | 0.04 | 92 | 1008.0 |
| 20260507223604 | 47 | 204 | 5.2 | 9.6 | 0.04 | 0.04 | 0.04 | 93 | 1008.0 |
| 20260507222704 | 47 | 213 | 7.8 | 13.0 | 0.03 | 0.03 | 0.03 | 92 | 1008.1 |
| 20260507221805 | 47 | 225 | 7.8 | 13.0 | 0.03 | 0.03 | 0.03 | 92 | 1008.1 |
| 20260507220903 | 47 | 218 | 6.1 | 11.3 | 0.01 | 0.01 | 0.01 | 90 | 1008.1 |
| 20260507220025 | 48 | 206 | 6.1 | 11.3 | 0.00 | 0.00 | 0.01 | 90 | 1007.9 |
| 20260507215404 | 48 | 211 | 5.2 | 9.6 | 0.00 | 0.00 | 0.00 | 89 | 1007.9 |
| 20260507214504 | 48 | 213 | 6.1 | 12.2 | 0.00 | 0.00 | 0.00 | 89 | 1007.9 |
| 20260507213603 | 48 | 209 | 4.3 | 8.7 | 0.00 | 0.00 | 0.00 | 89 | 1007.9 |
| 20260507212703 | 48 | 222 | 5.2 | 8.7 | 0.00 | 0.00 | 0.00 | 89 | 1007.8 |
| 20260507211803 | 48 | 217 | 6.1 | 9.6 | 0.00 | 0.00 | 0.00 | 89 | 1007.7 |
| 20260507210903 | 48 | 216 | 6.1 | 9.6 | 0.00 | 0.00 | 0.00 | 90 | 1008.0 |
| 20260507210004 | 48 | 212 | 6.1 | 11.3 | 0.00 | 0.00 | 0.00 | 90 | 1007.9 |
| 20260507205424 | 48 | 211 | 6.1 | 12.2 | 0.00 | 0.00 | 0.00 | 90 | 1007.9 |
| 20260507204504 | 48 | 215 | 6.1 | 12.2 | 0.00 | 0.00 | 0.00 | 90 | 1007.8 |
| 20260507203605 | 48 | 204 | 5.2 | 8.7 | 0.00 | 0.00 | 0.00 | 89 | 1007.7 |
| 20260507202703 | 48 | 207 | 7.0 | 11.3 | 0.00 | 0.00 | 0.00 | 89 | 1007.9 |
| 20260507201805 | 48 | 201 | 7.0 | 14.8 | 0.00 | 0.00 | 0.00 | 88 | 1007.7 |
| 20260507200904 | 48 | 211 | 8.7 | 14.8 | 0.00 | 0.00 | 0.00 | 88 | 1007.7 |
| 20260507200027 | 49 | 217 | 8.7 | 14.8 | 0.00 | 0.00 | 0.00 | 88 | 1007.6 |
| 20260507195403 | 49 | 220 | 7.8 | 13.0 | 0.00 | 0.00 | 0.00 | 87 | 1007.6 |
| 20260507194503 | 49 | 225 | 7.0 | 13.0 | 0.00 | 0.00 | 0.00 | 85 | 1007.4 |
| 20260507193603 | 49 | 213 | 7.8 | 13.0 | 0.00 | 0.00 | 0.00 | 85 | 1007.5 |
| 20260507192726 | 49 | 221 | 8.7 | 13.9 | 0.00 | 0.00 | 0.00 | 84 | 1007.5 |
| 20260507191804 | 49 | 217 | 7.8 | 13.0 | 0.00 | 0.00 | 0.00 | 83 | 1007.4 |
| 20260507190903 | 49 | 222 | 7.8 | 12.2 | 0.00 | 0.00 | 0.00 | 82 | 1007.2 |
| 20260507190005 | 49 | 217 | 7.0 | 13.0 | 0.00 | 0.00 | 0.00 | 82 | 1007.3 |
| 20260507185403 | 49 | 211 | 7.8 | 13.0 | 0.00 | 0.00 | 0.00 | 81 | 1007.3 |
| 20260507184504 | 49 | 213 | 7.8 | 12.2 | 0.00 | 0.00 | 0.00 | 81 | 1007.2 |
| 20260507183604 | 50 | 211 | 7.8 | 14.8 | 0.00 | 0.00 | 0.00 | 80 | 1007.2 |
| 20260507182705 | 50 | 207 | 7.0 | 12.2 | 0.00 | 0.00 | 0.00 | 78 | 1007.5 |
| 20260507181803 | 51 | 207 | 7.8 | 13.0 | 0.00 | 0.00 | 0.00 | 75 | 1007.3 |
| 20260507180925 | 51 | 206 | 7.0 | 11.3 | 0.00 | 0.00 | 0.00 | 73 | 1007.3 |
| 20260507180004 | 52 | 208 | 7.0 | 12.2 | 0.00 | 0.00 | 0.00 | 70 | 1007.2 |
| 20260507175404 | 53 | 203 | 6.1 | 11.3 | 0.00 | 0.00 | 0.00 | 69 | 1007.3 |
| 20260507174504 | 53 | 198 | 5.2 | 7.8 | 0.00 | 0.00 | 0.00 | 71 | 1007.1 |
| 20260507173603 | 53 | 196 | 6.1 | 13.0 | 0.00 | 0.00 | 0.00 | 71 | 1007.5 |
| 20260507172703 | 53 | 211 | 7.0 | 13.0 | 0.00 | 0.00 | 0.00 | 70 | 1007.3 |
| 20260507171804 | 52 | 221 | 7.0 | 12.2 | 0.00 | 0.00 | 0.00 | 70 | 1007.5 |
| 20260507170925 | 53 | 220 | 7.0 | 13.0 | 0.00 | 0.00 | 0.00 | 70 | 1007.4 |
| 20260507170005 | 51 | 221 | 7.8 | 13.0 | 0.00 | 0.00 | 0.00 | 73 | 1007.4 |
| 20260507165403 | 51 | 213 | 7.8 | 13.0 | 0.00 | 0.00 | 0.00 | 71 | 1007.4 |
| 20260507164503 | 53 | 206 | 8.7 | 13.9 | 0.00 | 0.00 | 0.00 | 69 | 1007.4 |
| 20260507163603 | 54 | 210 | 8.7 | 15.6 | 0.00 | 0.00 | 0.00 | 63 | 1007.4 |
| 20260507162703 | 55 | 185 | 8.7 | 14.8 | 0.00 | 0.00 | 0.00 | 61 | 1007.4 |
| 20260507161803 | 56 | 207 | 8.7 | 16.5 | 0.00 | 0.00 | 0.00 | 62 | 1007.4 |
| 20260507160903 | 54 | 215 | 7.8 | 16.5 | 0.00 | 0.00 | 0.00 | 64 | 1007.3 |
| 20260507160004 | 54 | 210 | 7.8 | 13.0 | 0.00 | 0.00 | 0.00 | 66 | 1007.5 |
| 20260507155424 | 53 | 198 | 7.8 | 15.6 | 0.00 | 0.00 | 0.00 | 66 | 1007.4 |
| 20260507154504 | 53 | 195 | 7.8 | 13.0 | 0.00 | 0.00 | 0.00 | 68 | 1007.5 |
| 20260507153603 | 53 | 194 | 8.7 | 12.2 | 0.00 | 0.00 | 0.00 | 67 | 1007.4 |
| 20260507152704 | 54 | 197 | 8.7 | 14.8 | 0.00 | 0.00 | 0.00 | 66 | 1007.2 |
| 20260507151824 | 54 | 203 | 8.7 | 14.8 | 0.00 | 0.00 | 0.00 | 66 | 1007.4 |
| 20260507150903 | 55 | 205 | 8.7 | 14.8 | 0.00 | 0.00 | 0.00 | 65 | 1007.4 |
| 20260507150024 | 55 | 199 | 9.6 | 15.6 | 0.00 | 0.00 | 0.00 | 64 | 1007.5 |
| 20260507145424 | 56 | 202 | 8.7 | 15.6 | 0.00 | 0.00 | 0.00 | 63 | 1007.4 |
| 20260507144504 | 56 | 208 | 8.7 | 16.5 | 0.00 | 0.00 | 0.00 | 64 | 1007.5 |
| 20260507143625 | 58 | 197 | 7.8 | 12.2 | 0.00 | 0.00 | 0.00 | 63 | 1007.5 |
| 20260507142704 | 58 | 216 | 7.8 | 13.0 | 0.00 | 0.00 | 0.00 | 63 | 1007.6 |
| 20260507141803 | 58 | 185 | 7.0 | 13.0 | 0.00 | 0.00 | 0.00 | 63 | 1007.6 |
| 20260507140905 | 59 | 191 | 7.0 | 9.6 | 0.00 | 0.00 | 0.00 | 63 | 1007.6 |
| 20260507140006 | 60 | 189 | 7.0 | 11.3 | 0.00 | 0.00 | 0.00 | 61 | 1007.5 |
| 20260507135403 | 59 | 194 | 7.8 | 11.3 | 0.00 | 0.00 | 0.00 | 60 | 1007.6 |
| 20260507134504 | 58 | 198 | 7.8 | 13.0 | 0.00 | 0.00 | 0.00 | 63 | 1007.6 |
| 20260507133604 | 58 | 214 | 7.0 | 12.2 | 0.00 | 0.00 | 0.00 | 64 | 1007.8 |
| 20260507132725 | 58 | 205 | 7.0 | 12.2 | 0.00 | 0.00 | 0.00 | 65 | 1007.9 |
| 20260507131803 | 58 | 201 | 7.8 | 15.6 | 0.00 | 0.00 | 0.00 | 66 | 1007.9 |
| 20260507130903 | 58 | 200 | 7.8 | 15.6 | 0.00 | 0.00 | 0.00 | 65 | 1007.9 |
| 20260507130004 | 58 | 203 | 7.0 | 13.0 | 0.00 | 0.00 | 0.00 | 64 | 1008.1 |
| 20260507125424 | 59 | 204 | 7.0 | 11.3 | 0.00 | 0.00 | 0.00 | 64 | 1008.1 |
| 20260507124503 | 58 | 199 | 7.8 | 12.2 | 0.00 | 0.00 | 0.00 | 64 | 1008.1 |
| 20260507123603 | 58 | 207 | 7.0 | 11.3 | 0.00 | 0.00 | 0.00 | 64 | 1008.0 |
| 20260507122724 | 57 | 201 | 7.0 | 16.5 | 0.00 | 0.00 | 0.00 | 65 | 1007.9 |
| 20260507121805 | 56 | 192 | 7.8 | 16.5 | 0.00 | 0.00 | 0.00 | 65 | 1008.2 |
| 20260507120924 | 55 | 195 | 7.8 | 13.9 | 0.00 | 0.00 | 0.00 | 62 | 1008.0 |
| 20260507120025 | 56 | 207 | 7.8 | 12.2 | 0.00 | 0.00 | 0.00 | 64 | 1008.0 |
| 20260507115404 | 55 | 204 | 7.8 | 13.0 | 0.00 | 0.00 | 0.00 | 68 | 1008.2 |
| 20260507114503 | 54 | 191 | 7.0 | 12.2 | 0.00 | 0.00 | 0.00 | 72 | 1008.3 |
| 20260507113604 | 52 | 180 | 5.2 | 8.7 | 0.00 | 0.00 | 0.00 | 75 | 1008.3 |
| 20260507112704 | 51 | 185 | 6.1 | 9.6 | 0.00 | 0.00 | 0.00 | 77 | 1008.2 |
| 20260507111804 | 51 | 193 | 6.1 | 12.2 | 0.00 | 0.00 | 0.00 | 78 | 1008.3 |
| 20260507110903 | 51 | 195 | 6.1 | 8.7 | 0.00 | 0.00 | 0.00 | 80 | 1008.3 |
| 20260507110003 | 51 | 180 | 6.1 | 9.6 | 0.00 | 0.00 | 0.00 | 78 | 1008.3 |
| 20260507105403 | 51 | 183 | 6.1 | 9.6 | 0.00 | 0.00 | 0.00 | 79 | 1008.3 |
| 20260507104526 | 50 | 190 | 6.1 | 9.6 | 0.00 | 0.00 | 0.00 | 79 | 1008.3 |
| 20260507103603 | 50 | 209 | 7.0 | 11.3 | 0.00 | 0.00 | 0.00 | 80 | 1008.3 |
| 20260507102703 | 50 | 188 | 5.2 | 8.7 | 0.00 | 0.00 | 0.00 | 82 | 1008.3 |
| 20260507101825 | 50 | 188 | 5.2 | 9.6 | 0.00 | 0.00 | 0.00 | 82 | 1008.1 |
| 20260507100925 | 50 | 182 | 5.2 | 8.7 | 0.00 | 0.00 | 0.00 | 83 | 1008.2 |
| 20260507100005 | 49 | 197 | 5.2 | 7.8 | 0.00 | 0.00 | 0.00 | 85 | 1008.3 |
| 20260507095404 | 49 | 184 | 6.1 | 7.8 | 0.00 | 0.00 | 0.00 | 85 | 1008.3 |
| 20260507094505 | 49 | 189 | 5.2 | 11.3 | 0.00 | 0.00 | 0.00 | 86 | 1008.1 |
| 20260507093603 | 48 | 190 | 4.3 | 7.8 | 0.00 | 0.00 | 0.00 | 87 | 1008.2 |
| 20260507092703 | 48 | 174 | 3.5 | 7.0 | 0.00 | 0.00 | 0.00 | 87 | 1008.1 |
| 20260507091803 | 47 | 186 | 3.5 | 7.0 | 0.00 | 0.00 | 0.00 | 87 | 1008.1 |
| 20260507090904 | 47 | 179 | 2.6 | 6.1 | 0.00 | 0.00 | 0.00 | 86 | 1008.2 |
| 20260507090004 | 47 | 182 | 3.5 | 6.1 | 0.00 | 0.00 | 0.00 | 85 | 1008.2 |
| 20260507085403 | 47 | 192 | 3.5 | 7.0 | 0.00 | 0.00 | 0.00 | 84 | 1008.2 |
| 20260507084504 | 47 | 195 | 2.6 | 6.1 | 0.00 | 0.00 | 0.00 | 83 | 1008.3 |
| 20260507083603 | 46 | 189 | 2.6 | 7.0 | 0.00 | 0.00 | 0.00 | 83 | 1008.4 |
| 20260507082703 | 46 | 185 | 1.7 | 3.5 | 0.00 | 0.00 | 0.00 | 83 | 1008.3 |
| 20260507081804 | 46 | 88 | 2.6 | 5.2 | 0.00 | 0.00 | 0.00 | 82 | 1008.2 |
| 20260507080924 | 46 | 88 | 3.5 | 11.3 | 0.00 | 0.00 | 0.00 | 81 | 1008.5 |
| 20260507080004 | 46 | 80 | 1.7 | 6.1 | 0.00 | 0.00 | 0.00 | 81 | 1008.2 |
| 20260507075403 | 46 | 79 | 1.7 | 6.1 | 0.00 | 0.00 | 0.00 | 80 | 1008.5 |
| 20260507074503 | 46 | 91 | 1.7 | 6.1 | 0.00 | 0.00 | 0.00 | 81 | 1008.5 |
| 20260507073603 | 46 | 94 | 2.6 | 7.0 | 0.00 | 0.00 | 0.00 | 81 | 1008.4 |
| 20260507072724 | 46 | 76 | 3.5 | 8.7 | 0.00 | 0.00 | 0.00 | 80 | 1008.4 |
| 20260507071805 | 46 | 69 | 3.5 | 11.3 | 0.00 | 0.00 | 0.00 | 80 | 1008.5 |
| 20260507070903 | 46 | 96 | 1.7 | 5.2 | 0.00 | 0.00 | 0.00 | 80 | 1008.3 |
| 20260507070005 | 46 | 82 | 2.6 | 8.7 | 0.00 | 0.00 | 0.00 | 80 | 1008.4 |
| 20260507065405 | 45 | 75 | 2.6 | 8.7 | 0.00 | 0.00 | 0.00 | 79 | 1008.4 |
| 20260507064503 | 45 | 87 | 1.7 | 3.5 | 0.00 | 0.00 | 0.00 | 80 | 1008.5 |
| 20260507063603 | 45 | 90 | 1.7 | 5.2 | 0.00 | 0.00 | 0.00 | 80 | 1008.5 |
| 20260507062703 | 45 | 82 | 1.7 | 6.1 | 0.00 | 0.00 | 0.00 | 79 | 1008.7 |
| 20260507061803 | 45 | 79 | 2.6 | 6.1 | 0.00 | 0.00 | 0.00 | 79 | 1008.6 |
| 20260507060903 | 45 | 83 | 2.6 | 6.1 | 0.00 | 0.00 | 0.00 | 79 | 1008.5 |
| 20260507060003 | 45 | 89 | 1.7 | 6.1 | 0.00 | 0.00 | 0.00 | 79 | 1008.6 |
| 20260507055403 | 45 | 87 | 1.7 | 5.2 | 0.00 | 0.00 | 0.00 | 79 | 1008.6 |
| 20260507054503 | 44 | 103 | 1.7 | 5.2 | 0.00 | 0.00 | 0.00 | 79 | 1008.6 |
| 20260507053603 | 44 | 83 | 1.7 | 5.2 | 0.00 | 0.00 | 0.00 | 79 | 1008.4 |
| 20260507052703 | 44 | 69 | 1.7 | 6.1 | 0.00 | 0.00 | 0.00 | 78 | 1008.5 |
| 20260507051804 | 44 | 67 | 2.6 | 7.0 | 0.00 | 0.00 | 0.00 | 78 | 1008.5 |
| 20260507050903 | 44 | 68 | 2.6 | 7.0 | 0.00 | 0.00 | 0.00 | 78 | 1008.7 |
| 20260507050005 | 44 | 64 | 2.6 | 6.1 | 0.00 | 0.00 | 0.00 | 78 | 1008.6 |
| 20260507045404 | 44 | 63 | 1.7 | 5.2 | 0.00 | 0.00 | 0.00 | 78 | 1008.6 |
| 20260507044503 | 44 | 73 | 1.7 | 5.2 | 0.00 | 0.00 | 0.00 | 77 | 1008.6 |
| 20260507043603 | 44 | 63 | 2.6 | 6.1 | 0.00 | 0.00 | 0.00 | 77 | 1008.7 |
| 20260507042704 | 44 | 65 | 1.7 | 6.1 | 0.00 | 0.00 | 0.00 | 76 | 1008.7 |
| 20260507041804 | 44 | 51 | 1.7 | 3.5 | 0.00 | 0.00 | 0.00 | 76 | 1008.6 |
| 20260507040925 | 44 | 53 | 2.6 | 6.1 | 0.00 | 0.00 | 0.00 | 76 | 1008.9 |
| 20260507040004 | 44 | 61 | 2.6 | 6.1 | 0.00 | 0.00 | 0.00 | 75 | 1008.7 |
| 20260507035425 | 44 | 66 | 3.5 | 7.8 | 0.00 | 0.00 | 0.00 | 75 | 1008.6 |
| 20260507034503 | 44 | 47 | 2.6 | 6.1 | 0.00 | 0.00 | 0.00 | 74 | 1008.5 |
| 20260507033604 | 44 | 77 | 2.6 | 7.0 | 0.00 | 0.00 | 0.00 | 74 | 1008.9 |
| 20260507032703 | 44 | 78 | 2.6 | 7.0 | 0.00 | 0.00 | 0.00 | 74 | 1008.8 |
| 20260507031826 | 44 | 67 | 3.5 | 8.7 | 0.00 | 0.00 | 0.00 | 74 | 1008.8 |
| 20260507030904 | 44 | 81 | 2.6 | 7.0 | 0.00 | 0.00 | 0.00 | 73 | 1008.8 |